Location: Kunchanapalle
(16.4623°N, 80.6176°E)
Time: 09:16:32
(UTC+00:00)

CZ-2C R/B - Pass Details

Date: 13 August 2020
Orbit: 668 x 784 km, 98.2° (Epoch: 19 September)

Event Time Altitude Azimuth Distance (km) Brightness Sun altitude
Rises 22:44:33 0° 3° (N) 3,035 6.0 -22.7°
Reaches altitude 10° 22:46:48 10° 357° (N) 2,131 5.0 -22.2°
Maximum altitude 22:51:17 49° 283° (WNW) 905 2.5 -21.3°
Enters shadow 22:51:34 48° 271° (W) 914 2.5 -21.2°
